User: anonymous   Login
Location: Unspecified
(43.4680°N, 87.1740°E)
Time: 04:02:03
(UTC+00:00)
Language:

Terra - Orbit

View from above orbital plane
View from above orbital plane
View from above satellite
View from above satellite

Ground track
Ground track

The orbit data is extracted from the following two-line orbital elements,

1 25994U 99068A   21164.87625029  .00000060  00000-0  23250-4 0  9996
2 25994  98.1758 239.3655 0001410  90.5857  41.2025 14.57126562142822
Epoch (UTC): 13 June 2021 21:01:48
Eccentricity: 0.0001410
inclination: 98.1758°
perigee height: 701 km
apogee height: 703 km
right ascension of ascending node: 239.3655°
argument of perigee: 90.5857°
revolutions per day: 14.57126562
mean anomaly at epoch: 41.2025°
orbit number at epoch: 14282

The dashed part of the orbit path shows where the satellite is in the earth's shadow,  

DLR